Change the Weather History Date:

Wednesday, October 17, 2012

  Actual Average Record
Temperature  
Mean Temperature 16 °F -  
Max Temperature 19 °F - - ()
Min Temperature 13 °F - - ()
Degree Days  
Heating Degree Days 49    
Moisture  
Dew Point 15 °F    
Average Humidity 92    
Maximum Humidity 95    
Minimum Humidity 85    
Precipitation  
Precipitation 0.00 in - - ()
Sea Level Pressure  
Sea Level Pressure 30.12 in    
Wind  
Wind Speed 12 mph ()    
Max Wind Speed 21 mph    
Max Gust Speed -    
T = Trace of Precipitation, MM = Missing Value Source: Averaged Metar Reports

Daily Weather History Graph

Daily Weather History Graph

Search for Another Location

Airport or City:

Trip Planner

Search our weather history database for the weather conditions in past years. The results will help you decide how hot, cold, wet, or windy it might be!

Date:

Astronomy

Oct. 17, 2012 Rise Set
Actual Time 9:11 AM MDT 4:22 PM MDT
Civil Twilight 7:39 AM MDT 5:53 PM MDT
Nautical Twilight 6:03 AM MDT 7:29 PM MDT
Astronomical Twilight 4:20 AM MDT 9:11 PM MDT
Moon No Moon Rise No Moon Set
Length of Visible Light 10h 14m
Length of Day
7h 10m
Waxing Crescent, 7% of the Moon is Illuminated
Oct 17
Waxing Crescent
Oct 21
First Quarter
Oct 29
Full
Nov 6
Last Quarter
Nov 13
New

Hourly Weather History & Observations

Time (MDT) Temp. Windchill Dew Point Humidity Pressure Visibility Wind Dir Wind Speed Gust Speed Precip Events Conditions
12:00 AM 16 °F - 14 °F 89% 30.17 in - NNW 10.4 mph - -  
12:00 AM 16.0 °F 3.6 °F 14.2 °F 93% 30.17 in - NNW 10.4 mph - N/A   Unknown
1:00 AM 18.9 °F 8.8 °F 17.4 °F 94% 30.18 in - NNW 8.1 mph - N/A   Unknown
2:00 AM 18.7 °F 9.5 °F 17.4 °F 95% 30.18 in - NNW 6.9 mph - N/A   Unknown
3:00 AM 18.5 °F 6.8 °F 16.5 °F 92% 30.17 in - NNW 10.4 mph - N/A   Unknown
4:00 AM 14.7 °F 2.1 °F 12.7 °F 92% 30.17 in - NW 10.4 mph - N/A   Unknown
5:00 AM 16.0 °F 3.6 °F 14.0 °F 92% 30.16 in - NNW 10.4 mph - N/A   Unknown
6:00 AM 17 °F - 15 °F 85% 30.14 in - NW 13.8 mph - -  
6:00 AM 16.5 °F 2.4 °F 14.5 °F 92% 30.14 in - NW 13.8 mph - N/A   Unknown
7:00 AM 16.5 °F 3.0 °F 14.9 °F 93% 30.14 in - NNW 12.7 mph - N/A   Unknown
8:00 AM 16.9 °F 2.8 °F 15.4 °F 94% 30.14 in - NNW 13.8 mph - N/A   Unknown
9:00 AM 18.7 °F 4.6 °F 17.1 °F 93% 30.13 in - NNW 15.0 mph - N/A   Unknown
10:00 AM 19.2 °F 4.3 °F 17.8 °F 94% 30.12 in - NNW 17.3 mph - N/A   Unknown
11:00 AM 19.8 °F 5.4 °F 18.5 °F 95% 30.12 in - NNW 16.1 mph - N/A   Unknown
12:00 PM 19 °F - 17 °F 91% 30.11 in - NNW 13.8 mph - -  
12:00 PM 18.9 °F 5.3 °F 17.4 °F 94% 30.11 in - NNW 13.8 mph - N/A   Unknown
1:00 PM 19.4 °F 5.5 °F 17.8 °F 93% 30.11 in - NNW 15.0 mph - N/A   Unknown
2:00 PM 18.0 °F 3.6 °F 16.2 °F 93% 30.11 in - NNW 15.0 mph - N/A   Unknown
3:00 PM 18.9 °F 4.3 °F 16.9 °F 92% 30.11 in - NNW 16.1 mph - N/A   Unknown
4:00 PM 18.1 °F 2.9 °F 16.0 °F 91% 30.11 in - NNW 17.3 mph - N/A   Unknown
5:00 PM 16.7 °F 1.0 °F 14.5 °F 91% 30.10 in - NNW 17.3 mph - N/A   Unknown
6:00 PM 16 °F - 13 °F 85% 30.10 in - NNW 17.3 mph - -  
6:00 PM 15.8 °F -0.2 °F 13.5 °F 90% 30.10 in - NNW 17.3 mph - N/A   Unknown
7:00 PM 15.6 °F -1.8 °F 13.6 °F 92% 30.10 in - NNW 20.7 mph - N/A   Unknown
8:00 PM 15.6 °F -1.3 °F 13.5 °F 91% 30.09 in - NNW 19.6 mph - N/A   Unknown
9:00 PM 13.3 °F -1.8 °F 10.9 °F 90% 30.09 in - NW 13.8 mph - N/A   Unknown
10:00 PM 16.0 °F -0.9 °F 14.0 °F 92% 30.07 in - NNW 19.6 mph - N/A   Unknown
11:00 PM 17.1 °F 1.0 °F 14.7 °F 91% 30.06 in - NNW 18.4 mph - N/A   Unknown